Regional Weather Roundup
Issued by NWS

Home | Current Version | Previous Version | Text Only | Print | Product List | Glossary Off
Versions: 1 2 3 4 5 6 7 8 9 10 11 12 13 14 15 16 17 18 19 20 21 22 23 24 25 26 27 28 29 30 31 32 33 34 35 36 37 38 39 40 41 42 43 44 45 46 47 48 49 50

000
ASUS43 KBIS 221020
RWRND

NORTH DAKOTA REGIONAL WEATHER ROUNDUP
NATIONAL WEATHER SERVICE BISMARCK ND
400 AM CST MON DEC 22 2014

NOTE: "FAIR" INDICATES FEW OR NO CLOUDS BELOW 12,000 FEET WITH NO
SIGNIFICANT WEATHER AND/OR OBSTRUCTIONS TO VISIBILITY.


NDZ001>003-009>011-017-221100-
NORTHWEST NORTH DAKOTA

CITY           SKY/WX    TMP DP  RH WIND       PRES   REMARKS
WILLISTON      LGT SNOW  33  31  92 W9        29.45R FOG
MINOT          CLOUDY    28  27  96 SE7       29.44S FOG
MINOT AFB      CLOUDY    28  28 100 SE6       29.45R FOG
$$

NDZ018>021-031>035-040>046-221100-
SOUTHWEST NORTH DAKOTA

CITY           SKY/WX    TMP DP  RH WIND       PRES   REMARKS
BISMARCK       FOG       28  28 100 SE6       29.45S VSB 3/4
DICKINSON      CLOUDY    34  31  88 W20       29.41R
GARRISON         N/A     28  28 100 E6        29.42S
HETTINGER ARPT CLOUDY    35  32  88 NW16      29.45S
$$

NDZ004>008-012>016-024-026-027-054-221100-
NORTHEAST NORTH DAKOTA

CITY           SKY/WX    TMP DP  RH WIND       PRES   REMARKS
GRAND FORKS    CLOUDY    34  33  96 SE8       29.52F
GRND FRKS AFB  CLOUDY    33  33 100 SE5       29.52F FOG
DEVILS LAKE    CLOUDY    30  25  80 E3        29.48R
$$

NDZ022-023-025-028>030-036>039-047>053-221100-
SOUTHEAST NORTH DAKOTA

CITY           SKY/WX    TMP DP  RH WIND       PRES   REMARKS
FARGO          CLOUDY    38  36  92 SE12      29.50F
JAMESTOWN      CLOUDY    32  31  96 E3        29.45S FOG
$$



USA.gov is the U.S. government's official web portal to all federal, state and local government web resources and services.